EHI
0 0 0 0 0 0 0 0 0 0 0 0 0 0 0 0 0 0 0 0 0 0 0 0 0 0 0 0 0 0 0 0 0 0 0 0 0 0
0 0 0 0 0 0 0 0 0 0 0 0 0 0 0 0 0 0 0 0 0 0 0 0 0 0 0 0 0 0 0 0 0 0 0 0 0 0
0 0 0 0 0 0 0 0 0 0 0 0 0 0 0 0 0 0 0 0 0 0 0 0 0 0 0 0 0 0 0 0 0 0 0 0 0 0
0 0 0 0 0 0 0 0 0 0 0 0 0 0 0 0 0 0 0 0 0 0 0 0 0 0 0 0 0 0 0 0 0 0 0 0 0 0
0 0 0 0 0 0 0 0 0 0 0 0 0 0 0 0 0 0 0 0 0 0 0 0 0 0 0 0 0 0 0 0 0 0 0 0 0 0
0 0 0 0 0 0 0 0 0 0 0 0 0 0 0 0 0 0 0 0 0 0 0 0 0 0 0 0 0 0 0 0 0 0 0 0 0 0
0 0 0 0 0 0 0 0 0 0 0 0 0 0 0 0 0 0 0 0 0 0 0 0 0 0 0 0 0 0 0 0 0 0 0 0 0 0
0 0 0 0 0 0 0 0 0 0 0 0 0 0 0 0 0 0 0 0 0 0 0 0 0 0 0 0 0 0 0 0 0 0 0 0 0 0
0 0 0 0 0 0 0 0 0 0 0 0 0 0 0 0 0 0 0 0 0 0 0 0 0 0 0 0 0 0 0 0 0 0 0 0 0 0
0 0 0 0 0 0 0 0 0 0 0 0 0 0 0 0 0 0 0 0 0 0 0 0 0 0 0 0 0 0 0 0 0 0 0 0 0 0
0 0 0 0 0 0 0 0 0 0 0 0 0 0 0 0 0 0 0 0 0 0 0 0 0 0 0 0 0 0 0 0 0 0 0 0 0 0
0 0 0 0 0 0 0 0 0 0 0 0 0 0 0 0 0 0 0 0 0 0 0 0 0 0 0 0 0 0 0 0 0 0 0 0 0 0
0 0 0 0 0 0 0 0 0 0 0 0 0 0 0 0 0 0 0 0 0 0 0 0 0 0 0 0 0 0 0 0 0 0 0 0 0 0
0 0 0 0 0 0 0 0 0 0 0 0 0 0 0 0 0 0 0 0 0 0 0 0 0 0 0 0 0 0 0 0 0 0 0 0 0 0
0 0 0 0 0 0 0 0 0 0 0 0 0 0 0 0 0 0 0 0 0 0 0 0 0 0 0 0 0 0 0 0 0 0 0 0 0 0
0 0 0 0 0 0 0 0 0 0 0 0 0 0 0 0 0 0 0 0 0 0 0 0 0 0 0 0 0 0 0 0 0 0 0 0 0 0
0 0 0 0 0 0 0 0 0 0 0 0 0 0 0 0 0 0 0 0 0 0 0 0 0 0 0 0 0 0 0 0 0 0 0 0 0 0
0 0 0 0 0 0 0 0 0 0 0 0 0 0 0 0 0 0 0 0 0 0 0 0 0 0 0 0 0 0 0 0 0 0 0 0 0 0
0 0 0 0 0 0 0 0 0 0 0 0 0 0 0 0 0 0 0 0 0 0 0 0 0 0 0 0 0 0 0 0 0 0 0 0 0 0
0 0 0 0 0 0 0 0 0 0 0 0 0 0 0 0 0 0 0 0 0 0 0 0 0 0 0 0 0 0 0 0 0 0 0 0 0 0
0 0 0 0 0 0 0 0 0 0 0 0 0 0 0 0 0 0 0 0 0 0 0 0 0 0 0 0 0 0 0 0 0 0 0 0 0 0
0 0 0 0 0 0 0 0 0 0 0 0 0 0 0 0 0 0 0 0 0 0 0 0 0 0 0 0 0 0 0 0 0 0 0 0 0 0
0 0 0 0 0 0 0 0 0 0 0 0 0 0 0 0 0 0 0 0 0 0 0 0 0 0 0 0 0 0 0 0 0 0 0 0 0 0
Wind_Speed
5 5 3 2 2 2 1 1 1 1 3 4 3 4 4 3 5 3 4 10 14 13 14 14 16 18 19 20 21 21 22 22 23 23 23 23 23 22
4 5 4 2 3 2 2 1 1 2 2 3 3 4 5 7 11 6 6 15 15 16 16 16 16 18 19 20 21 22 22 22 22 23 23 23 23 23
5 5 4 3 3 3 2 1 1 1 2 4 3 4 5 7 8 7 6 6 7 15 17 18 18 18 18 19 20 20 21 21 22 22 23 23 23 22
5 5 5 4 4 3 2 2 2 2 2 4 4 4 5 7 7 7 7 7 5 14 17 19 19 18 17 16 17 17 18 18 20 22 23 23 22 22
5 4 5 4 4 3 3 3 3 3 2 3 5 4 4 5 6 7 7 6 8 11 14 16 17 18 17 16 16 16 16 16 18 19 20 21 22 22
5 5 5 4 4 4 3 3 3 4 4 4 5 5 5 6 4 5 6 5 6 9 11 12 15 17 18 18 18 18 16 15 15 16 17 18 19 19
6 6 6 7 6 3 2 3 3 3 4 4 5 5 6 5 5 4 6 6 7 6 5 6 7 7 9 14 16 17 16 15 14 14 14 15 16 17
6 6 7 6 6 6 8 9 8 6 5 4 5 7 8 7 6 6 6 6 5 3 3 7 6 7 7 6 12 16 15 14 14 13 13 13 14 15
5 5 6 6 5 4 7 11 11 13 11 6 7 8 7 7 7 7 6 6 7 6 5 7 6 7 7 8 14 14 14 14 13 13 12 12 12 13
6 6 5 6 5 5 5 7 8 8 9 6 6 8 8 8 7 6 6 6 7 6 4 5 5 6 7 6 11 13 13 13 13 13 12 12 12 12
7 7 7 6 9 9 6 8 9 9 9 10 11 11 13 13 8 4 4 5 6 5 3 3 4 5 6 5 7 11 12 13 13 13 12 12 11 10
6 7 9 9 12 12 7 6 8 9 8 10 9 9 7 8 9 4 4 5 5 4 3 3 3 4 5 4 5 6 6 9 12 12 12 11 9 5
6 6 7 12 15 15 10 6 8 9 7 6 6 6 5 5 5 4 3 3 4 4 4 3 3 3 4 5 5 5 5 5 5 6 8 8 7 5
5 6 8 15 16 14 9 8 11 8 4 4 4 4 4 4 5 5 5 5 4 5 6 4 3 3 4 4 5 5 6 5 4 4 4 4 3 5
6 12 14 15 13 9 9 12 8 4 3 3 4 4 4 4 4 4 5 5 5 5 5 3 3 3 3 4 5 4 5 4 5 4 4 3 2 1
7 11 13 11 8 8 7 6 4 3 3 3 3 4 4 4 3 3 3 4 4 5 6 5 4 3 3 4 5 5 5 5 5 5 4 3 3 2
7 5 4 5 6 6 6 5 5 4 4 3 3 3 4 4 4 3 3 3 3 4 6 5 5 3 2 3 4 6 6 5 5 5 4 3 3 4
5 4 5 5 5 5 6 5 4 4 4 3 3 3 3 4 4 3 3 3 3 4 4 4 5 5 3 2 2 5 6 5 5 5 4 3 4 4
4 4 5 5 5 5 5 4 4 4 4 4 3 4 4 3 3 3 3 3 3 4 4 4 4 4 5 5 5 6 6 5 5 5 4 3 3 4
4 5 5 5 5 5 5 4 4 5 4 4 4 4 4 3 3 4 3 3 3 4 4 4 4 4 4 4 4 5 8 6 5 5 5 3 3 3
5 5 5 5 5 5 5 5 4 4 5 4 4 5 4 3 3 3 3 4 3 3 4 4 4 6 3 3 3 4 5 7 6 5 5 4 4 5
5 5 5 5 5 5 5 5 5 5 6 5 5 5 5 3 3 4 3 3 3 3 3 4 4 4 4 4 5 5 6 6 6 8 10 8 4 4
5 5 5 5 5 5 5 6 6 5 5 5 6 6 5 4 4 3 3 3 3 3 3 4 4 4 4 4 4 4 6 6 5 6 6 10 10 8
Wind_Direction
48 48 44 24 31 44 74 122 138 305 297 300 313 315 320 304 304 297 285 299 306 297 289 283 283 284 284 284 283 281 278 277 275 274 273 272 270 270
39 39 27 7 8 10 20 40 143 180 258 278 275 289 311 320 318 315 298 309 307 303 298 292 288 285 284 284 284 282 279 276 274 273 272 271 269 268
19 21 6 356 355 344 346 347 328 193 254 276 271 287 300 302 308 303 297 290 289 300 300 295 291 287 286 286 286 283 281 279 277 275 273 271 269 267
5 3 345 341 336 320 315 309 294 272 245 284 290 294 292 292 289 293 298 298 292 297 296 294 293 291 289 289 287 283 279 275 274 273 272 271 268 266
347 340 324 327 316 303 298 294 289 296 274 276 287 285 286 290 295 294 291 289 293 296 295 293 294 294 293 293 289 283 277 272 269 268 268 267 266 264
333 324 316 307 291 289 290 290 288 297 295 289 287 289 284 284 280 286 295 288 289 294 291 291 293 295 295 294 291 289 284 276 269 265 264 261 259 258
328 323 318 326 339 328 315 296 293 287 290 288 287 291 293 297 292 278 289 293 286 274 279 287 289 284 286 287 289 288 286 283 277 270 265 259 254 251
323 321 318 323 330 338 335 327 316 300 289 278 284 290 293 289 286 287 289 298 295 279 282 291 285 281 280 272 277 281 283 285 282 277 268 262 255 248
321 316 321 326 326 312 316 319 313 304 293 279 277 283 287 287 288 290 286 283 282 283 286 288 286 283 281 285 287 286 288 289 286 282 275 268 261 250
323 316 312 310 304 302 305 307 300 294 289 284 262 271 280 281 276 278 281 284 277 276 264 276 285 285 291 289 288 288 292 296 294 289 282 272 263 251
319 321 318 309 303 309 306 302 303 301 300 292 285 286 288 291 290 284 293 297 301 296 272 259 277 289 288 285 288 292 294 296 296 291 285 278 265 250
316 313 314 309 309 312 300 289 295 298 307 314 314 313 308 304 308 286 275 292 299 295 286 284 278 296 296 284 284 294 298 297 296 292 288 281 268 240
313 312 309 312 315 313 308 278 274 288 298 302 307 309 313 314 313 308 284 268 288 287 289 299 286 286 282 295 297 299 305 304 305 299 297 288 265 220
303 304 305 312 315 316 315 305 309 312 304 312 316 316 316 315 309 310 307 299 280 277 290 299 287 299 302 296 298 308 312 310 312 313 316 314 280 234
301 309 313 316 320 320 320 325 330 330 323 321 318 307 299 298 307 318 322 324 322 314 315 306 299 297 303 299 305 306 309 312 324 327 331 336 330 274
321 317 317 319 328 325 327 333 333 320 313 307 305 304 312 325 327 323 321 329 333 323 321 327 324 315 318 311 310 319 321 319 328 336 341 351 2 3
316 315 327 336 343 341 338 337 335 339 339 328 324 325 327 331 323 322 326 332 334 328 331 333 329 309 258 319 324 331 333 332 337 341 344 1 10 8
330 327 329 332 333 333 333 331 330 333 329 328 327 324 322 321 319 321 329 330 327 327 330 329 336 339 331 298 342 337 339 339 342 349 356 1 5 5
350 336 332 330 331 330 329 326 319 316 317 325 325 320 319 319 321 323 330 333 329 328 325 329 341 347 352 352 338 354 350 341 345 355 1 3 357 353
344 334 331 331 331 331 329 326 325 330 334 331 326 321 319 318 323 327 329 329 327 332 337 337 342 344 342 332 324 328 350 356 350 351 348 339 335 329
333 333 330 330 331 332 328 326 328 330 334 331 328 325 320 317 317 320 323 329 335 338 340 333 322 331 328 337 349 350 348 3 16 9 348 345 350 359
330 332 332 336 337 336 333 335 339 341 342 339 332 328 324 319 314 315 320 321 319 327 332 326 335 355 7 12 7 354 357 359 8 26 35 34 18 6
331 335 338 342 343 343 344 346 346 341 338 336 333 330 330 330 324 327 328 324 321 330 340 347 355 5 5 3 3 1 4 6 8 18 24 24 38 43